Location: Clyde
(45.1830°S, 169.3170°E)
Time: 17:28:19
(UTC+13:00)

Cosmos 2360 Rocket - Pass Details

Date: 24 January 2019
Orbit: 833 x 846 km, 71.0° (Epoch: 22 February)

Event Time Altitude Azimuth Distance (km) Brightness Sun altitude
Exits shadow 22:43:34 - 354° (N) 3,341 4.9 -12.3°
Reaches altitude 10° 22:45:55 10° 359° (N) 2,472 4.2 -12.6°
Maximum altitude 22:51:21 48° 72° (ENE) 1,102 2.4 -13.3°
Drops below altitude 10° 22:56:51 10° 144° (SE) 2,498 4.8 -14.0°
Sets 22:59:23 0° 149° (SSE) 3,438 5.6 -14.3°
